This is the latest recevied weather packets stored in our database for station/object KB1JLI. If no packets are shown the sender has not sent any weather packets the latest 10 day(s).
| Time | Temp. | Humidity | Pressure | Rain* | Wind** | Luminosity | Snow |
|---|---|---|---|---|---|---|---|
| 1777863757 | 3.33° C | 81% | 1009.8 hPa | 0 mm | - | 0 W/m² | - |
| 1777863453 | 3.33° C | 81% | 1010 hPa | 0 mm | - | 0 W/m² | - |
| 1777863150 | 3.33° C | 81% | 1010 hPa | 0 mm | - | 0 W/m² | - |
| 1777862847 | 3.33° C | 81% | 1010 hPa | 0 mm | - | 0 W/m² | - |
| 1777862543 | 3.33° C | 80% | 1009.8 hPa | 0 mm | - | 0 W/m² | - |
| 1777862240 | 3.89° C | 79% | 1009.9 hPa | 0 mm | - | 0 W/m² | - |
| 1777861936 | 3.89° C | 79% | 1009.9 hPa | 0 mm | - | 0 W/m² | - |
| 1777861632 | 3.89° C | 78% | 1010 hPa | 0 mm | - | 0 W/m² | - |
| 1777861329 | 3.89° C | 77% | 1010.1 hPa | 0 mm | - | 0 W/m² | - |
| 1777861027 | 3.89° C | 75% | 1009.8 hPa | 0 mm | - | 0 W/m² | - |
| 1777860723 | 3.89° C | 74% | 1009.8 hPa | 0 mm | - | 0 W/m² | - |
| 1777860420 | 3.89° C | 73% | 1009.7 hPa | 0 mm | - | 0 W/m² | - |
| 1777860116 | 4.44° C | 70% | 1009.7 hPa | 0 mm | - | 0 W/m² | - |
| 1777859813 | 4.44° C | 67% | 1009.6 hPa | 0 mm | - | 0 W/m² | - |
| 1777859509 | 4.44° C | 68% | 1009.6 hPa | 0 mm | - | 0 W/m² | - |
| 1777859205 | 5° C | 68% | 1009.6 hPa | 0 mm | - | 0 W/m² | - |
| 1777858902 | 5° C | 67% | 1009.6 hPa | 0 mm | - | 0 W/m² | - |
| 1777858600 | 5° C | 65% | 1009.5 hPa | 0 mm | - | 0 W/m² | - |
| 1777858297 | 5° C | 65% | 1009.5 hPa | 0 mm | - | 0 W/m² | - |
| 1777857994 | 5° C | 64% | 1009.3 hPa | 0 mm | - | 0 W/m² | - |
| 1777857692 | 5.56° C | 63% | 1009.6 hPa | 0 mm | - | 0 W/m² | - |
| 1777857388 | 5.56° C | 62% | 1009.5 hPa | 0 mm | - | 0 W/m² | - |
| 1777857085 | 6.11° C | 64% | 1009.6 hPa | 0 mm | - | 0 W/m² | - |
| 1777856781 | 6.11° C | 61% | 1009.4 hPa | 0 mm | - | 0 W/m² | - |
| 1777856477 | 6.67° C | 59% | 1009.3 hPa | 0 mm | - | 0 W/m² | - |
* Rain latest hour (hover to see other rain measurements)
** Current wind speed in m/s (hover to see current wind gust speed)